Tracking 35275 objects as of 9-Sep-2026
HD Live streaming from Space Station
objects crossing your sky now

EMISAT

Track EMISAT now!
10-day predictions


NORAD ID: 44078
Int'l Code: 2019-018A
Launch date: April 1, 2019
Source: India (IND)
Launch site: SRIHARIKOTA (SRI)

EMISAT is an Indian satellite featured with instrumentation to detect, locate and characterize electromagnetic signals, such as those transmitted by military radars.
Your satellite tracking list
Your tracking list is empty




NASA's NSSDC Master Catalog

Two Line Element Set (TLE):
1 44078U 19018A   26252.28510687  .00000125  00000-0  49851-4 0  9995
2 44078  98.4577 310.5871 0017695 328.2062  31.8058 14.43666965392190
Source of the keplerian elements: AFSPC